Location: Acheville
(50.3840°N, 2.8827°E)
Time: 10:16:57
(UTC+00:00)

YAOGAN 1 - Pass Details

Date: 24 October 2021
Orbit: 618 x 620 km, 97.9° (Epoch: 30 November)

Event Time Altitude Azimuth Distance (km) Brightness Sun altitude
Rises 17:08:42 0° 122° (ESE) 2,892 5.6 -5.5°
Reaches altitude 10° 17:11:23 10° 105° (ESE) 1,991 4.6 -5.9°
Maximum altitude 17:14:26 19° 60° (ENE) 1,487 4.0 -6.4°
Drops below altitude 10° 17:17:29 10° 15° (NNE) 2,000 4.9 -6.8°
Sets 17:20:11 0° 358° (N) 2,911 5.9 -7.3°
